map of OXC home
OXC - Airport
Location
City:  Oxford, Connecticut, United States
Name:Waterbury-Oxford Airport
ICAO:KOXC
IATA:OXC
FAA LID:OXC

Details
Type:Airport (Airfield)
Use:Public/Civil
Latitude:4128'43"N (41.478556)
Longitude:7308'07"W (-73.135249)
Datum:WGS 1984
Elevation:726 ft (221 m)
Variation:13.49W (WMM2015 magnetic declination)
0.04 annual change
Runways:1
Longest:5800 × 100 ft (1768 × 30.5 m), paved

Time
Time Zone:UTC-5 (DST-4)
Local Time:

Weather
METAR:KOXC 190151Z AUTO 01006KT 10SM CLR 19/13 A2999 RMK AO2 SLP166 T01940128

Related Locations
Nearby:
Farthest:YAUG: 11767 mi / 18937 km
Augusta [Augusta Airport], WA, AU

Find:

   beyond  
but within

Other Information
Maps:
NOTAMs:
Links:
Sources:

  
  • flag of United States
  • flag of Connecticut
  

Airport Diagram

Airport diagram for OXC

Airport diagram PDF

Sectional Chart

Flight Planning
at skyvector.com

Satellite Image

Google Maps Satellite view

 

Copyright © 2004-2018 Karl L. Swartz. All rights reserved.
The Great Circle Mapper name and logo are trademarks of the Great Circle Mapper.
All other trademarks mentioned herein belong to their respective owners.
Please see credits for attibutions and further copyright information.

  Follow gcmap on Facebook Follow gcmap on Twitter Follow gcmap on Google+ GCmap on LinkedIn

hCard Microformat

Geo Microformat